GW2049 Weather Reports


time (UTC)temp
C
wind
direction
speed
KPH
gust
KPH
rain 1hr
cm
rain 24hr
cm
rain mn
cm
humidity
%
barometer
mb
20260504031017 6 239 0.0 0.0 0.00 0.00 0.00 75 1011.1
20260504030515 6 287 0.0 1.6 0.00 0.00 0.00 74 1011.1
20260504030010 7 240 0.0 0.0 0.00 0.00 0.00 72 1010.7
20260504025507 7 242 0.0 0.0 0.00 0.00 0.00 71 1011.1
20260504025004 7 239 0.0 0.0 0.00 0.00 0.00 70 1011.1
20260504024502 7 241 0.0 0.0 0.00 0.00 0.00 68 1011.1
20260504023959 8 239 0.0 0.0 0.00 0.00 0.00 67 1010.7
20260504023455 8 245 0.0 0.0 0.00 0.00 0.00 65 1011.1
20260504022950 8 252 0.0 0.0 0.00 0.00 0.00 62 1010.7
20260504022447 9 236 0.0 0.0 0.00 0.00 0.00 62 1010.7
20260504021943 9 237 0.0 0.0 0.00 0.00 0.00 59 1010.7
20260504021441 10 240 0.0 0.0 0.00 0.00 0.00 56 1010.7
20260504020938 10 231 1.6 1.6 0.00 0.00 0.00 58 1010.7
20260504020434 10 238 0.0 0.0 0.00 0.00 0.00 56 1010.7
20260504015931 10 230 0.0 0.0 0.00 0.00 0.00 55 1011.1
20260504015427 10 235 0.0 0.0 0.00 0.00 0.00 54 1011.1
20260504014923 11 246 0.0 0.0 0.00 0.00 0.00 50 1010.7
20260504014419 11 225 1.6 1.6 0.00 0.00 0.00 50 1011.1
20260504013916 11 245 0.0 0.0 0.00 0.00 0.00 49 1011.1
20260504013415 11 246 1.6 1.6 0.00 0.00 0.00 49 1011.1
20260504012911 11 66 1.6 3.2 0.00 0.00 0.00 52 1011.1
20260504012409 11 235 0.0 1.6 0.00 0.00 0.00 50 1011.1
20260504011906 11 232 1.6 1.6 0.00 0.00 0.00 50 1010.7
20260504011403 11 227 1.6 1.6 0.00 0.00 0.00 46 1011.1
20260504010858 11 245 0.0 0.0 0.00 0.00 0.00 49 1010.7
20260504010355 11 246 0.0 0.0 0.00 0.00 0.00 46 1010.7
20260504005851 12 261 0.0 0.0 0.00 0.00 0.00 45 1010.7
20260504005348 12 251 1.6 1.6 0.00 0.00 0.00 45 1010.7
20260504004845 12 246 0.0 0.0 0.00 0.00 0.00 45 1010.7
20260504004343 12 273 1.6 3.2 0.00 0.00 0.00 45 1010.7
20260504003839 12 245 4.8 4.8 0.00 0.00 0.00 44 1010.7
20260504003336 12 254 3.2 3.2 0.00 0.00 0.00 44 1010.7
20260504002833 12 234 4.8 4.8 0.00 0.00 0.00 44 1010.7
20260504002330 12 287 0.0 1.6 0.00 0.00 0.00 44 1010.7
20260504001827 12 308 1.6 3.2 0.00 0.00 0.00 44 1011.1
20260504001324 12 264 1.6 3.2 0.00 0.00 0.00 43 1010.7
20260504000821 12 252 1.6 3.2 0.00 0.00 0.00 42 1010.7
20260504000318 12 257 3.2 4.8 0.00 0.00 0.00 43 1010.7
20260503235816 12 252 4.8 4.8 0.00 0.00 0.00 41 1010.7
20260503235313 12 251 1.6 1.6 0.00 0.00 0.00 42 1010.7
20260503234811 13 264 3.2 3.2 0.00 0.00 0.00 41 1010.7
20260503234308 13 254 1.6 1.6 0.00 0.00 0.00 43 1010.7
20260503233806 13 323 3.2 3.2 0.00 0.00 0.00 42 1010.7
20260503233301 13 273 1.6 3.2 0.00 0.00 0.00 41 1010.4
20260503232759 13 258 1.6 3.2 0.00 0.00 0.00 40 1010.7
20260503232256 13 332 3.2 3.2 0.00 0.00 0.00 40 1010.4
20260503231754 13 245 1.6 1.6 0.00 0.00 0.00 42 1010.4
20260503231251 13 274 3.2 3.2 0.00 0.00 0.00 41 1010.1
20260503230746 13 268 0.0 1.6 0.00 0.00 0.00 44 1010.4
20260503230244 13 253 1.6 1.6 0.00 0.00 0.00 43 1010.4
20260503225741 13 249 1.6 3.2 0.00 0.00 0.00 42 1010.1
20260503225241 13 265 1.6 1.6 0.00 0.00 0.00 42 1010.1
20260503224738 13 277 3.2 3.2 0.00 0.00 0.00 40 1010.1
20260503224236 14 277 3.2 3.2 0.00 0.00 0.00 40 1010.1
20260503223734 14 256 1.6 1.6 0.00 0.00 0.00 39 1009.7
20260503223231 15 214 1.6 1.6 0.00 0.00 0.00 39 1010.1
20260503222727 15 335 3.2 4.8 0.00 0.00 0.00 39 1010.1
20260503222225 15 274 4.8 4.8 0.00 0.00 0.00 39 1010.1
20260503221723 15 305 3.2 4.8 0.00 0.00 0.00 39 1010.1
20260503221221 14 54 1.6 1.6 0.00 0.00 0.00 40 1010.4
20260503220717 14 180 6.4 9.7 0.00 0.00 0.00 41 1010.1
20260503220214 14 352 1.6 3.2 0.00 0.00 0.00 41 1010.1
20260503215711 15 254 4.8 4.8 0.00 0.00 0.00 40 1010.1
20260503215208 15 250 6.4 9.7 0.00 0.00 0.00 39 1010.1
20260503214706 15 324 1.6 3.2 0.00 0.00 0.00 40 1010.1
20260503214201 15 243 3.2 3.2 0.00 0.00 0.00 41 1010.1
20260503213655 15 243 3.2 4.8 0.00 0.00 0.00 40 1010.1
20260503213152 15 356 3.2 4.8 0.00 0.00 0.00 42 1010.1
20260503212649 15 50 4.8 4.8 0.00 0.00 0.00 41 1010.1
20260503212146 15 266 3.2 4.8 0.00 0.00 0.00 41 1010.1
20260503211644 14 174 4.8 4.8 0.00 0.00 0.00 42 1010.1
20260503211139 15 242 4.8 4.8 0.00 0.00 0.00 41 1010.1
20260503210636 14 265 6.4 9.7 0.00 0.00 0.00 41 1010.1
20260503210132 13 232 6.4 9.7 0.00 0.00 0.00 42 1010.1
20260503205628 13 282 3.2 4.8 0.00 0.00 0.00 43 1010.1
20260503205125 13 324 4.8 8.0 0.00 0.00 0.00 44 1010.1
20260503204621 13 218 4.8 9.7 0.00 0.00 0.00 42 1010.4
20260503204119 13 306 6.4 9.7 0.00 0.00 0.00 43 1010.7
20260503203616 13 276 3.2 4.8 0.00 0.00 0.00 43 1010.4
20260503203114 13 274 3.2 4.8 0.00 0.00 0.00 43 1010.4
20260503202611 13 241 4.8 11.3 0.00 0.00 0.00 43 1010.4
20260503202109 13 244 1.6 1.6 0.00 0.00 0.00 44 1010.4
20260503201607 13 272 3.2 4.8 0.00 0.00 0.00 43 1010.4
20260503201104 13 268 4.8 8.0 0.00 0.00 0.00 43 1010.7
20260503200600 14 238 6.4 8.0 0.00 0.00 0.00 42 1010.7
20260503200056 13 255 4.8 4.8 0.00 0.00 0.00 44 1011.1
20260503195554 13 10 3.2 4.8 0.00 0.00 0.00 45 1010.7
20260503195050 14 307 3.2 3.2 0.00 0.00 0.00 42 1011.1
20260503194547 15 337 8.0 11.3 0.00 0.00 0.00 41 1010.7
20260503194047 15 269 4.8 4.8 0.00 0.00 0.00 42 1011.1
20260503193544 15 260 3.2 4.8 0.00 0.00 0.00 42 1011.1
20260503193039 14 218 6.4 9.7 0.00 0.00 0.00 44 1011.4
20260503192535 15 229 3.2 3.2 0.00 0.00 0.00 41 1011.1
20260503192031 14 290 1.6 1.6 0.00 0.00 0.00 42 1011.4
20260503191528 14 270 0.0 1.6 0.00 0.00 0.00 45 1011.1
20260503191025 14 297 4.8 4.8 0.00 0.00 0.00 43 1011.4
20260503190522 14 323 6.4 9.7 0.00 0.00 0.00 41 1011.4
20260503190019 14 153 11.3 12.9 0.00 0.00 0.00 42 1011.8
20260503185515 14 311 1.6 3.2 0.00 0.00 0.00 43 1011.8
20260503185015 13 251 1.6 1.6 0.00 0.00 0.00 42 1011.8
20260503184512 14 208 4.8 9.7 0.00 0.00 0.00 44 1011.8
20260503184008 13 251 1.6 1.6 0.00 0.00 0.00 43 1011.8
20260503183505 13 108 8.0 14.5 0.00 0.00 0.00 41 1011.8
20260503183002 13 233 3.2 4.8 0.00 0.00 0.00 40 1011.8
20260503182500 12 330 1.6 1.6 0.00 0.00 0.00 43 1012.1
20260503181957 12 244 4.8 4.8 0.00 0.00 0.00 44 1012.1
20260503181454 13 323 12.9 20.9 0.00 0.00 0.00 42 1012.1
20260503180950 13 277 4.8 4.8 0.00 0.00 0.00 42 1012.1
20260503180449 13 233 3.2 4.8 0.00 0.00 0.00 42 1012.1
20260503175945 12 239 4.8 8.0 0.00 0.00 0.00 45 1012.5
20260503175443 12 319 11.3 14.5 0.00 0.00 0.00 43 1012.5
20260503174939 12 298 6.4 8.0 0.00 0.00 0.00 43 1012.5
20260503174437 12 274 4.8 4.8 0.00 0.00 0.00 43 1012.1
20260503173932 13 303 3.2 3.2 0.00 0.00 0.00 42 1012.1
20260503173428 12 215 1.6 1.6 0.00 0.00 0.00 43 1012.5
20260503172926 12 294 8.0 12.9 0.00 0.00 0.00 41 1012.5
20260503172423 12 256 6.4 9.7 0.00 0.00 0.00 43 1012.5
20260503171919 12 282 6.4 9.7 0.00 0.00 0.00 42 1012.5
20260503171416 13 1 8.0 12.9 0.00 0.00 0.00 42 1012.5
20260503170914 12 301 6.4 9.7 0.00 0.00 0.00 42 1012.9
20260503170409 12 186 11.3 14.5 0.00 0.00 0.00 43 1012.9
20260503150802 12 229 1.6 3.2 0.00 0.00 0.00 45 1013.9
20260503150258 12 269 9.7 12.9 0.00 0.00 0.00 44 1013.9
20260503140222 10 144 1.6 1.6 0.00 0.00 0.00 49 1014.2
20260503131152 8 245 4.8 4.8 0.00 0.00 0.00 54 1014.6
20260503130649 8 299 1.6 3.2 0.00 0.00 0.00 55 1014.6
20260503130147 7 310 4.8 8.0 0.00 0.00 0.00 60 1014.6
20260503120112 4 229 0.0 1.6 0.00 0.00 0.00 81 1014.6
20260503110539 -1 233 0.0 0.0 0.00 0.00 0.00 99 1014.6
20260503090426 -1 241 0.0 0.0 0.00 0.00 0.00 96 1014.2
20260503081353 0 241 0.0 0.0 0.00 0.00 0.00 93 1014.2
20260503080849 0 237 0.0 0.0 0.00 0.00 0.00 92 1013.9
20260503080347 0 238 0.0 0.0 0.00 0.00 0.00 92 1013.9
20260503072823 1 247 0.0 0.0 0.00 0.00 0.00 87 1013.9
20260503072320 1 240 0.0 0.0 0.00 0.00 0.00 87 1013.9
20260503071816 1 240 0.0 0.0 0.00 0.00 0.00 86 1013.9
20260503071314 2 247 0.0 0.0 0.00 0.00 0.00 85 1013.9
20260503070810 2 239 0.0 0.0 0.00 0.00 0.00 85 1013.9
20260503070308 2 242 0.0 0.0 0.00 0.00 0.00 84 1013.9
20260503060232 2 258 0.0 1.6 0.00 0.00 0.00 81 1014.6
20260503054719 2 251 0.0 1.6 0.00 0.00 0.00 82 1014.2
20260503054216 2 248 0.0 0.0 0.00 0.00 0.00 82 1014.6
20260503053715 2 243 0.0 0.0 0.00 0.00 0.00 82 1014.6
20260503053213 2 245 0.0 0.0 0.00 0.00 0.00 82 1014.6
20260503052709 2 249 0.0 0.0 0.00 0.00 0.00 83 1014.6
20260503052206 2 246 0.0 0.0 0.00 0.00 0.00 82 1014.2
20260503051701 2 265 1.6 1.6 0.00 0.00 0.00 82 1014.6
20260503051159 2 245 0.0 0.0 0.00 0.00 0.00 81 1014.6
20260503050655 2 248 0.0 0.0 0.00 0.00 0.00 81 1014.9
20260503050152 2 245 0.0 0.0 0.00 0.00 0.00 80 1014.6
20260503045649 2 248 0.0 0.0 0.00 0.00 0.00 80 1014.6
20260503045146 3 274 1.6 1.6 0.00 0.00 0.00 80 1014.6
20260503044643 3 329 3.2 3.2 0.00 0.00 0.00 79 1014.9
20260503044141 3 273 1.6 3.2 0.00 0.00 0.00 79 1014.9
20260503043637 3 248 0.0 0.0 0.00 0.00 0.00 79 1014.9
20260503043134 3 293 1.6 1.6 0.00 0.00 0.00 79 1014.9
20260503042630 3 264 1.6 1.6 0.00 0.00 0.00 79 1014.9
20260503042126 3 243 0.0 0.0 0.00 0.00 0.00 78 1014.9
20260503041623 3 315 3.2 3.2 0.00 0.00 0.00 78 1014.9
20260503041121 3 254 0.0 0.0 0.00 0.00 0.00 78 1014.9
20260503040618 3 256 0.0 1.6 0.00 0.00 0.00 77 1014.9
20260503040116 3 231 1.6 1.6 0.00 0.00 0.00 78 1015.4
20260503035612 3 248 0.0 0.0 0.00 0.00 0.00 77 1014.9
20260503035110 3 242 0.0 0.0 0.00 0.00 0.00 77 1015.4
20260503034607 3 248 0.0 1.6 0.00 0.00 0.00 77 1015.4
20260503034104 3 242 0.0 0.0 0.00 0.00 0.00 77 1014.9
20260503033601 3 273 0.0 1.6 0.00 0.00 0.00 77 1015.4
20260503033059 3 247 1.6 1.6 0.00 0.00 0.00 77 1015.4
20260503032557 3 264 1.6 1.6 0.00 0.00 0.00 77 1014.9
20260503032055 3 248 0.0 0.0 0.00 0.00 0.00 77 1015.4
20260503031552 3 248 0.0 0.0 0.00 0.00 0.00 76 1014.9